Regional Weather Roundup
Issued by NWS Columbia, SC

Home | Current Version | Previous Version | Text Only | Print | Product List | Glossary On
Versions: 1 2 3 4 5 6 7 8 9 10 11 12 13 14 15 16 17 18 19 20 21 22 23 24 25 26 27
000
ASUS42 KCAE 231510
RWRCAE
REGIONAL WEATHER ROUNDUP
NATIONAL WEATHER SERVICE COLUMBIA SC
1100 AM EDT THU OCT 23 2014

NOTE: "FAIR" INDICATES FEW OR NO CLOUDS BELOW 12,000 FEET WITH NO
SIGNIFICANT WEATHER AND/OR OBSTRUCTIONS TO VISIBILITY.

NOT ALL STATIONS ARE QUALITY CONTROLLED BY THE NATIONAL
WEATHER SERVICE. USE DATA WITH CAUTION...ESPECIALLY
DEWPOINT OBSERVATIONS.

SCZ001>056-GAZ040-063>065-077-231600-
...UPSTATE SOUTH CAROLINA...

CITY           SKY/WX    TMP DP  RH WIND       PRES   REMARKS
ANDERSON       SUNNY     57  43  59 W3        30.12S
LIBERTY        FAIR      57  41  56 MISG      30.11S
SPARTANBURG    FAIR      61  41  48 N3        30.10S
CLEMSON        SUNNY     59  42  53 CALM      30.12S
GREENVILLE     SUNNY     59  37  44 NW6       30.12R
GREENWOOD      SUNNY     59  40  49 NW6       30.13F
GREER          SUNNY     59  41  51 NE5       30.10S
ROCK HILL      SUNNY     58  40  51 N9        30.10S
LAURENS        FAIR      55  32  41 N3        30.12F


...CENTRAL SOUTH CAROLINA...

CITY           SKY/WX    TMP DP  RH WIND       PRES   REMARKS
COLUMBIA APT   SUNNY     61  41  47 NW8       30.10F
COLUMBIA OWENS SUNNY     59  40  49 NW7       30.12S
DARLINGTON     SUNNY     61  41  48 N10G20    30.09S
FLORENCE       SUNNY     60  42  51 NW9       30.07F
MCENTIRE ANGB  SUNNY     60  42  51 CALM      30.10F
ORANGEBURG     SUNNY     60  40  47 N10       30.11S
SUMTER SHAW    SUNNY     58  43  58 NW8       30.08F
NEWBERRY       FAIR      55  43  62 N3        30.14F
AIKEN          FAIR      59  45  58 NW6       30.14F
BARNWELL       FAIR      63  41  45 N6        30.12S
MANNING        FAIR      61  45  55 NW8       30.10S
CAMDEN         FAIR      57  41  54 N6        30.11S
LANCASTER      FAIR      59  41  51 N8        30.10S
WINNSBORO      FAIR      59  43  55 W3        30.09F


...EASTERN AND COASTAL SOUTH CAROLINA...

CITY           SKY/WX    TMP DP  RH WIND       PRES   REMARKS
MYRTLE BEACH   SUNNY     59  43  55 N9        30.06S
N MYRTLE BCH   SUNNY     59  43  55 NW8       30.05S
CONWAY         FAIR      59  45  58 N6        30.07S
MARION         FAIR      59  43  55 NW5       30.07S
HARTSVILLE     FAIR      61  21  21 N8        30.08F
FLORENCE       SUNNY     60  42  51 NW9       30.07F
DARLINGTON     SUNNY     61  41  48 N10G20    30.09S
CHARLESTON APT SUNNY     64  46  52 N8        30.10S
MOUNT PLEASANT FAIR      61  46  59 N6        30.09S
WALTERBORO     SUNNY     61  39  44 N5        30.12S
BEAUFORT       SUNNY     62  45  53 N9        30.11S


...EASTERN GEORGIA...

CITY           SKY/WX    TMP DP  RH WIND       PRES   REMARKS
AUGUSTA BUSH F SUNNY     60  39  45 N7        30.13S
AUGUSTA DANIEL SUNNY     59  40  49 NW7       30.13S
THOMSON        SUNNY     57  50  76 CALM      30.17F
WASHINGTON     FAIR      61  50  67 W3        30.13S
CLAXTON        FAIR      61  46  59 NE5       30.13S
SYLVANIA       SUNNY     65  50  57 N5        30.13F
SAVANNAH       SUNNY     63  43  48 NE7       30.12F


...SOUTHERN NORTH CAROLINA...

CITY           SKY/WX    TMP DP  RH WIND       PRES   REMARKS
CHARLOTTE      SUNNY     58  38  47 NW10      30.10S
MONROE         SUNNY     59  39  47 N9        30.08S
WADESBORO      SUNNY     58  40  50 NW12G18   30.08S
ROCKINGHAM     SUNNY     56  42  58 NW10      30.07S
RUTHERFORDTON  SUNNY     58  38  48 N6        30.11F
ASHEVILLE      SUNNY     51  37  58 NW21G29   30.14F

$$



USA.gov is the U.S. government's official web portal to all federal, state and local government web resources and services.